TimeCST,TemperatureF,Dew PointF,Humidity,Sea Level PressureIn,VisibilityMPH,Wind Direction,Wind SpeedMPH,Gust SpeedMPH,PrecipitationIn,Events,Conditions,WindDirDegrees,DateUTC
12:15 AM,8.6,-2.2,62,30.53,4.0,SE,5.8,-,N/A,Snow,Light Snow,130,2013-12-08 06:15:00
12:35 AM,8.6,-0.4,67,30.52,3.0,SE,5.8,-,N/A,Snow,Light Snow,130,2013-12-08 06:35:00
12:55 AM,8.6,1.4,73,30.50,4.0,East,6.9,-,N/A,Snow,Light Snow,90,2013-12-08 06:55:00
1:15 AM,8.6,1.4,73,30.48,10.0,East,5.8,-,N/A,,Overcast,90,2013-12-08 07:15:00
1:35 AM,8.6,-0.4,67,30.47,10.0,East,6.9,-,N/A,,Overcast,100,2013-12-08 07:35:00
1:55 AM,8.6,-0.4,67,30.45,10.0,East,8.1,-,N/A,,Overcast,80,2013-12-08 07:55:00
2:15 AM,8.6,-2.2,62,30.45,10.0,East,8.1,-,N/A,,Overcast,90,2013-12-08 08:15:00
2:35 AM,10.4,-0.4,62,30.44,10.0,East,6.9,-,N/A,,Overcast,90,2013-12-08 08:35:00
2:55 AM,10.4,-0.4,62,30.43,10.0,East,8.1,-,N/A,,Overcast,90,2013-12-08 08:55:00
3:15 AM,10.4,-0.4,62,30.42,4.0,East,9.2,-,N/A,Snow,Light Snow,90,2013-12-08 09:15:00
3:35 AM,8.6,1.4,73,30.40,4.0,East,11.5,-,N/A,Snow,Light Snow,100,2013-12-08 09:35:00
3:55 AM,10.4,1.4,67,30.39,8.0,East,11.5,-,N/A,,Overcast,100,2013-12-08 09:55:00
4:15 AM,10.4,1.4,67,30.39,10.0,East,10.4,-,N/A,,Overcast,100,2013-12-08 10:15:00
4:35 AM,10.4,-0.4,62,30.38,10.0,East,9.2,-,N/A,,Overcast,100,2013-12-08 10:35:00
4:55 AM,10.4,1.4,67,30.37,5.0,ESE,11.5,-,N/A,Snow,Light Snow,110,2013-12-08 10:55:00
5:15 AM,10.4,1.4,67,30.37,2.5,ESE,9.2,-,N/A,Snow,Light Snow,110,2013-12-08 11:15:00
5:35 AM,10.4,3.2,73,30.36,2.0,ESE,10.4,-,N/A,Snow,Light Snow,110,2013-12-08 11:35:00
5:55 AM,10.4,3.2,73,30.34,2.0,ESE,11.5,-,N/A,Snow,Light Snow,110,2013-12-08 11:55:00
6:15 AM,10.4,3.2,73,30.33,3.0,ESE,12.7,-,N/A,Snow,Light Snow,110,2013-12-08 12:15:00
6:35 AM,10.4,5.0,79,30.32,3.0,ESE,11.5,-,N/A,Snow,Light Snow,110,2013-12-08 12:35:00
6:55 AM,10.4,5.0,79,30.31,3.0,East,10.4,-,N/A,Snow,Light Snow,100,2013-12-08 12:55:00
7:15 AM,10.4,3.2,73,30.31,10.0,ESE,10.4,16.1,N/A,Snow,Light Snow,110,2013-12-08 13:15:00
7:35 AM,10.4,3.2,73,30.30,10.0,ESE,12.7,-,N/A,,Overcast,110,2013-12-08 13:35:00
7:55 AM,10.4,3.2,73,30.30,10.0,ESE,11.5,-,N/A,,Overcast,110,2013-12-08 13:55:00
8:15 AM,10.4,3.2,73,30.29,10.0,ESE,11.5,-,N/A,,Overcast,110,2013-12-08 14:15:00
8:35 AM,12.2,3.2,67,30.28,10.0,ESE,10.4,-,N/A,,Overcast,110,2013-12-08 14:35:00
8:55 AM,12.2,3.2,67,30.27,10.0,ESE,12.7,-,N/A,,Overcast,110,2013-12-08 14:55:00
9:15 AM,12.2,3.2,67,30.27,9.0,ESE,12.7,-,N/A,,Overcast,110,2013-12-08 15:15:00
9:35 AM,12.2,3.2,67,30.27,9.0,ESE,13.8,-,N/A,,Mostly Cloudy,120,2013-12-08 15:35:00
9:55 AM,12.2,3.2,67,30.26,10.0,ESE,11.5,18.4,N/A,,Mostly Cloudy,120,2013-12-08 15:55:00
10:35 AM,14.0,6.8,73,30.24,1.5,ESE,13.8,-,N/A,Snow,Light Snow,110,2013-12-08 16:35:00
10:55 AM,14.0,6.8,73,30.23,1.2,ESE,13.8,-,N/A,Snow,Light Snow,120,2013-12-08 16:55:00
11:15 AM,14.0,8.6,79,30.21,1.5,ESE,11.5,17.3,N/A,Snow,Light Snow,120,2013-12-08 17:15:00
11:35 AM,14.0,8.6,79,30.19,1.0,ESE,12.7,-,N/A,Snow,Light Snow,110,2013-12-08 17:35:00
11:55 AM,14.0,8.6,79,30.17,1.2,ESE,12.7,19.6,N/A,Snow,Light Snow,120,2013-12-08 17:55:00
12:15 PM,15.8,10.4,79,30.16,1.8,East,12.7,-,N/A,Snow,Light Snow,100,2013-12-08 18:15:00
12:35 PM,15.8,10.4,79,30.15,0.8,ESE,11.5,-,N/A,Snow,Light Snow,110,2013-12-08 18:35:00
12:55 PM,15.8,10.4,79,30.13,0.8,ESE,11.5,17.3,N/A,Snow,Light Snow,110,2013-12-08 18:55:00
1:15 PM,15.8,10.4,79,30.11,1.5,ESE,11.5,-,N/A,Snow,Light Snow,110,2013-12-08 19:15:00
1:35 PM,15.8,10.4,79,30.10,0.8,ESE,12.7,-,N/A,Snow,Light Snow,120,2013-12-08 19:35:00
1:55 PM,15.8,10.4,79,30.09,0.8,ESE,10.4,-,N/A,Snow,Light Snow,110,2013-12-08 19:55:00
2:15 PM,15.8,12.2,86,30.08,1.0,East,11.5,-,N/A,Snow,Light Snow,100,2013-12-08 20:15:00
2:35 PM,17.6,12.2,79,30.07,2.0,East,9.2,-,N/A,Snow,Light Snow,100,2013-12-08 20:35:00
2:55 PM,17.6,12.2,79,30.06,1.5,East,11.5,-,N/A,Snow,Light Snow,90,2013-12-08 20:55:00
3:15 PM,15.8,12.2,86,30.05,2.0,East,11.5,-,N/A,Snow,Light Snow,100,2013-12-08 21:15:00
3:35 PM,15.8,12.2,86,30.05,3.0,East,9.2,-,N/A,,Haze,100,2013-12-08 21:35:00
3:55 PM,15.8,12.2,86,30.04,2.0,East,11.5,-,N/A,Snow,Light Snow,90,2013-12-08 21:55:00
4:15 PM,15.8,12.2,86,30.04,4.0,East,11.5,-,N/A,,Haze,90,2013-12-08 22:15:00
4:35 PM,15.8,12.2,86,30.04,9.0,East,10.4,-,N/A,,Overcast,100,2013-12-08 22:35:00
4:55 PM,15.8,12.2,86,30.04,9.0,East,9.2,-,N/A,Snow,Light Snow,100,2013-12-08 22:55:00
5:15 PM,15.8,12.2,86,30.03,4.0,East,9.2,-,N/A,Snow,Light Snow,100,2013-12-08 23:15:00
5:35 PM,15.8,12.2,86,30.03,7.0,ENE,5.8,-,N/A,Snow,Light Snow,60,2013-12-08 23:35:00
5:55 PM,15.8,10.4,79,30.03,7.0,ENE,6.9,-,N/A,Snow,Light Snow,60,2013-12-08 23:55:00
6:15 PM,15.8,10.4,79,30.02,7.0,ENE,6.9,-,N/A,Snow,Light Snow,70,2013-12-09 00:15:00
6:35 PM,15.8,10.4,79,30.02,7.0,ENE,8.1,-,N/A,Snow,Light Snow,70,2013-12-09 00:35:00
6:55 PM,15.8,10.4,79,30.03,8.0,ENE,8.1,-,N/A,Snow,Light Snow,70,2013-12-09 00:55:00
7:15 PM,15.8,10.4,79,30.03,7.0,East,6.9,-,N/A,Snow,Light Snow,80,2013-12-09 01:15:00
7:35 PM,15.8,10.4,79,30.03,4.0,ENE,4.6,-,N/A,Snow,Light Snow,70,2013-12-09 01:35:00
7:55 PM,15.8,10.4,79,30.03,-9999.0,ENE,6.9,-,N/A,Snow,Light Snow,70,2013-12-09 01:55:00
8:15 PM,15.8,10.4,79,30.02,2.5,East,6.9,-,N/A,Snow,Light Snow,80,2013-12-09 02:15:00
8:35 PM,15.8,10.4,79,30.02,4.0,East,5.8,-,N/A,Snow,Light Snow,80,2013-12-09 02:35:00
8:55 PM,14.0,10.4,86,30.01,5.0,Calm,Calm,-,N/A,Snow,Light Snow,0,2013-12-09 02:55:00
9:15 PM,14.0,10.4,86,30.01,4.0,Calm,Calm,-,N/A,Snow,Light Snow,0,2013-12-09 03:15:00
9:35 PM,14.0,10.4,86,30.02,5.0,Calm,Calm,-,N/A,Snow,Light Snow,0,2013-12-09 03:35:00
9:55 PM,14.0,10.4,86,30.01,5.0,Calm,Calm,-,N/A,Snow,Light Snow,0,2013-12-09 03:55:00
10:15 PM,14.0,10.4,86,30.01,4.0,Calm,Calm,-,N/A,Snow,Light Snow,0,2013-12-09 04:15:00
10:35 PM,14.0,10.4,86,30.01,4.0,Calm,Calm,-,N/A,Snow,Light Snow,0,2013-12-09 04:35:00
10:55 PM,14.0,10.4,86,30.00,6.0,Calm,Calm,-,N/A,Snow,Light Snow,0,2013-12-09 04:55:00
11:15 PM,14.0,10.4,86,30.00,6.0,NW,3.5,-,N/A,Snow,Light Snow,320,2013-12-09 05:15:00
11:35 PM,14.0,10.4,86,29.99,2.0,NW,4.6,-,N/A,Snow,Light Snow,310,2013-12-09 05:35:00
11:55 PM,14.0,10.4,86,29.99,4.0,NW,5.8,-,N/A,Snow,Light Snow,320,2013-12-09 05:55:00